PROMETHEUS 2-1 (41854 NORAD) Tracking and Keplerian Element Data

This shows tracking and keplerian element data for the satellite.

Feedback or suggestion? Click here.




ElementValue
Catalog41854
NamePROMETHEUS 2-1
Epoch Orbit13250
Epoch Day106.90369827
Epoch Year2019
RAAN203.646
Inclination97.9151
Eccentricity0.0009096
Argument of Perigee229.6648
Mean Anonmoly130.3779
Mean Motion14.96840952
Decay Rate0
L11 41854U 16067G 19106.90369827 .00000000 00000-0 53467-5 0 9993
L22 41854 97.9151 203.6460 0009096 229.6648 130.3779 14.96840952132507

Live tracking and technical data element details for PROMETHEUS 2-1 (NORAD 41854). PROMETHEUS 2-1 can be tracked NOW for your location showing map with azimuth and elevation plus other details from your city location.

Track the satellite on the map from your city or location and see movement details for azimuth, elevation, latitude, longitude, range, height, and movement on the map or in text.







IsCatalogInMostPopularTable: catalog: 41854, numindb: 180
Update: records affected: 1



GetName: 41854 PROMETHEUS 2-1

Hit Count: updated at: Sat, 20 Apr 2019 01:01:59 GMT